Weather History for Columbus, OH

Change the Weather History Date:

Tuesday, August 27, 2013

  Actual Average Record
Temperature  
Mean Temperature 80 °F 73 °F  
Max Temperature 87 °F 83 °F 100 °F (1948)
Min Temperature 72 °F 63 °F 46 °F (1968)
Degree Days  
Heating Degree Days 0 0  
Month to date heating degree days 4 0  
Since 1 June heating degree days 10 19  
Since 1 July heating degree days 4 0  
Cooling Degree Days 15 8  
Month to date cooling degree days 223 250  
Year to date cooling degree days 942 858  
Since 1 June cooling degree days 781 776  
Growing Degree Days 30 (Base 50)    
Moisture  
Dew Point 70 °F    
Average Humidity 76    
Maximum Humidity 90    
Minimum Humidity 61    
Precipitation  
Precipitation T in 0.11 in 1.89 in (1992)
Month to date precipitation 1.98 2.88  
Year to date precipitation 25.78 27.25  
Snow  
Snow 0.00 in 0.00 in 0.00 in ()
Month to date snowfall 0.0 0.0  
Since 1 June snowfall 0.0 0.0  
Since 1 July snowfall 0.0 0.0  
Snow Depth 0.00 in    
Sea Level Pressure  
Sea Level Pressure 30.01 in    
Wind  
Wind Speed 6 mph (SW)    
Max Wind Speed 17 mph    
Max Gust Speed 27 mph    
Visibility 7 miles    
Events      
T = Trace of Precipitation, MM = Missing Value Source: NWS Daily Summary

Daily Weather History Graph

Daily Weather History Graph

Search for Another Location

Airport:

Trip Planner

Search our weather history database for the weather conditions in past years. The results will help you decide how hot, cold, wet, or windy it might be!

Date:

Astronomy

Aug. 27, 2013 Rise Set
Actual Time 6:54 AM EDT 8:10 PM EDT
Civil Twilight 6:26 AM EDT 8:38 PM EDT
Nautical Twilight 5:53 AM EDT 9:11 PM EDT
Astronomical Twilight 5:17 AM EDT 9:47 PM EDT
Moon No Moon Rise 1:51 PM EDT (8/27)
Length of Visible Light 14h 11m
Length of Day
13h 15m
Waning Gibbous, 57% of the Moon is Illuminated
Aug 27
Waning Gibbous
Aug 28
Last Quarter
Sep 5
New
Sep 12
First Quarter
Sep 19
Full

Hourly Weather History & Observations

Time (EDT) Temp. Heat Index Dew Point Humidity Pressure Visibility Wind Dir Wind Speed Gust Speed Precip Events Conditions
12:51 AM 78.1 °F - 68.0 °F 71% 30.04 in 8.0 mi West 4.6 mph - N/A   Partly Cloudy
1:51 AM 77.0 °F - 68.0 °F 74% 30.04 in 8.0 mi WNW 3.5 mph - N/A   Clear
2:51 AM 73.9 °F - 68.0 °F 82% 30.04 in 7.0 mi Calm Calm - N/A   Partly Cloudy
3:51 AM 73.0 °F - 68.0 °F 84% 30.03 in 6.0 mi SW 5.8 mph - N/A   Haze
4:51 AM 73.0 °F - 68.0 °F 84% 30.03 in 6.0 mi SW 3.5 mph - N/A   Haze
5:51 AM 73.0 °F - 68.0 °F 84% 30.02 in 8.0 mi South 3.5 mph - N/A   Overcast
6:51 AM 72.0 °F - 68.0 °F 87% 30.03 in 5.0 mi Variable 3.5 mph - 0.00 in   Mostly Cloudy
7:51 AM 73.0 °F - 68.0 °F 84% 30.04 in 6.0 mi South 4.6 mph - N/A   Haze
8:51 AM 73.9 °F - 69.1 °F 85% 30.04 in 5.0 mi SSW 3.5 mph - N/A   Haze
9:51 AM 79.0 °F - 69.1 °F 72% 30.03 in 6.0 mi West 5.8 mph - N/A   Haze
10:51 AM 80.1 °F 83.2 °F 70.0 °F 71% 30.04 in 7.0 mi WNW 9.2 mph - N/A   Overcast
11:39 AM 80.6 °F 83.9 °F 69.8 °F 70% 30.07 in 7.0 mi Variable 6.9 mph - N/A   Mostly Cloudy
11:51 AM 81.0 °F 84.4 °F 70.0 °F 69% 30.04 in 7.0 mi Variable 6.9 mph - N/A   Mostly Cloudy
12:07 PM 80.6 °F 83.9 °F 69.8 °F 70% 30.06 in 8.0 mi Variable 5.8 mph - N/A   Overcast
12:51 PM 80.1 °F 82.9 °F 69.1 °F 69% 30.04 in 7.0 mi East 3.5 mph - N/A   Overcast
1:51 PM 80.1 °F 83.2 °F 70.0 °F 71% 30.02 in 7.0 mi South 5.8 mph - N/A   Overcast
2:51 PM 81.0 °F 84.9 °F 71.1 °F 72% 30.01 in 6.0 mi SW 6.9 mph - 0.00 in   Light Drizzle
3:51 PM 84.0 °F 89.0 °F 71.1 °F 65% 29.98 in 7.0 mi SSW 12.7 mph - 0.00 in   Mostly Cloudy
4:51 PM 86.0 °F 91.5 °F 71.1 °F 61% 29.96 in 8.0 mi SSW 9.2 mph - N/A   Mostly Cloudy
5:51 PM 86.0 °F 92.2 °F 72.0 °F 63% 29.95 in 8.0 mi SSW 9.2 mph - N/A   Mostly Cloudy
6:51 PM 84.9 °F 92.1 °F 73.9 °F 69% 29.94 in 7.0 mi SSW 6.9 mph - N/A   Overcast
7:51 PM 84.0 °F 91.2 °F 73.9 °F 72% 29.94 in 7.0 mi SSW 5.8 mph - N/A   Overcast
8:51 PM 84.0 °F 89.6 °F 72.0 °F 67% 29.93 in 9.0 mi SW 9.2 mph - N/A   Mostly Cloudy
9:51 PM 82.9 °F 88.0 °F 72.0 °F 69% 29.94 in 8.0 mi SW 8.1 mph - N/A   Mostly Cloudy
10:51 PM 82.0 °F 87.4 °F 73.0 °F 74% 29.94 in 7.0 mi SW 5.8 mph - N/A   Mostly Cloudy
11:51 PM 82.0 °F 87.4 °F 73.0 °F 74% 29.93 in 7.0 mi SW 6.9 mph - N/A   Overcast